TimePDT,TemperatureF,Dew PointF,Humidity,Sea Level PressureIn,VisibilityMPH,Wind Direction,Wind SpeedMPH,Gust SpeedMPH,PrecipitationIn,Events,Conditions,WindDirDegrees,DateUTC
12:55 AM,53.2,25.3,34,30.02,10.0,NE,3.5,-,N/A,,Clear,40,2012-11-03 07:55:00
1:55 AM,50.4,25.3,38,30.03,10.0,NE,3.5,-,N/A,,Clear,50,2012-11-03 08:55:00
2:55 AM,53.1,26.1,35,30.04,10.0,WNW,3.5,-,N/A,,Clear,300,2012-11-03 09:55:00
3:55 AM,49.8,26.1,40,30.04,10.0,Calm,Calm,-,N/A,,Clear,0,2012-11-03 10:55:00
4:55 AM,50.4,24.1,36,30.06,10.0,Calm,Calm,-,N/A,,Clear,0,2012-11-03 11:55:00
5:55 AM,47.5,25.0,41,30.08,10.0,Calm,Calm,-,N/A,,Clear,0,2012-11-03 12:55:00
6:55 AM,45.9,25.3,45,30.11,10.0,NE,4.6,-,N/A,,Clear,40,2012-11-03 13:55:00
7:55 AM,49.5,26.1,40,30.13,10.0,Calm,Calm,-,N/A,,Clear,0,2012-11-03 14:55:00
8:55 AM,57.2,25.3,29,30.15,10.0,Calm,Calm,-,N/A,,Clear,0,2012-11-03 15:55:00
9:15 AM,57.2,26.6,31,30.14,10.0,Calm,Calm,-,N/A,,Light Drizzle,0,2012-11-03 16:15:00
9:24 AM,57.2,24.8,29,30.14,10.0,Calm,Calm,-,N/A,,Clear,0,2012-11-03 16:24:00
9:55 AM,59.0,26.2,29,30.15,10.0,Calm,Calm,-,0.00,,Clear,0,2012-11-03 16:55:00
10:55 AM,65.5,26.1,23,30.14,10.0,SW,4.6,-,N/A,,Clear,220,2012-11-03 17:55:00
11:55 AM,71.2,25.5,18,30.13,10.0,Calm,Calm,-,N/A,,Clear,0,2012-11-03 18:55:00
12:55 PM,73.2,26.2,17,30.11,10.0,Calm,Calm,-,N/A,,Clear,0,2012-11-03 19:55:00
1:55 PM,76.1,25.7,15,30.09,10.0,WSW,3.5,-,N/A,,Clear,250,2012-11-03 20:55:00
2:55 PM,79.5,25.5,14,30.06,10.0,Calm,Calm,-,N/A,,Clear,0,2012-11-03 21:55:00
3:55 PM,77.5,25.3,15,30.07,10.0,Calm,Calm,-,N/A,,Clear,0,2012-11-03 22:55:00
4:55 PM,76.5,25.9,15,30.06,10.0,Calm,Calm,-,N/A,,Clear,0,2012-11-03 23:55:00
5:55 PM,75.0,26.1,16,30.07,10.0,Calm,Calm,-,N/A,,Clear,0,2012-11-04 00:55:00
6:55 PM,68.5,27.1,21,30.10,10.0,Calm,Calm,-,N/A,,Clear,0,2012-11-04 01:55:00
7:55 PM,63.9,27.7,26,30.11,10.0,Calm,Calm,-,N/A,,Clear,0,2012-11-04 02:55:00
8:55 PM,60.3,26.6,28,30.12,10.0,South,3.5,-,N/A,,Clear,190,2012-11-04 03:55:00
9:55 PM,64.0,27.5,25,30.13,10.0,WNW,5.8,-,N/A,,Clear,290,2012-11-04 04:55:00
10:55 PM,56.7,28.0,33,30.14,10.0,Calm,Calm,-,N/A,,Clear,0,2012-11-04 05:55:00
11:55 PM,53.8,25.5,34,30.14,10.0,East,3.5,-,N/A,,Clear,80,2012-11-04 06:55:00